W5DRO-13 Weather Reports


Display with metric or nautical units.
time (UTC)temp
F
wind
direction
speed
MPH
gust
MPH
rain 1hr
in
rain 24hr
in
rain mn
in
humidity
%
barometer
mb
20260510033647 72 35 2.0 4.0 0.00 0.01 0.01 48 1011.3
20260510033145 72 54 0.0 1.0 0.00 0.01 0.01 50 1011.2
20260510032641 71 244 0.0 1.0 0.00 0.01 0.01 49 1011.2
20260510032137 71 249 0.0 1.0 0.00 0.01 0.01 50 1011.2
20260510031632 71 356 0.0 0.0 0.00 0.01 0.01 52 1011.1
20260510031129 72 25 0.0 0.0 0.00 0.01 0.01 52 1011.0
20260510030628 72 22 0.0 0.0 0.00 0.01 0.01 51 1011.0
20260510030126 72 22 0.0 0.0 0.00 0.01 0.01 51 1011.1
20260510025623 72 22 0.0 0.0 0.00 0.01 0.01 51 1011.2
20260510025121 72 22 0.0 1.0 0.00 0.01 0.01 52 1011.4
20260510024617 72 14 0.0 0.0 0.00 0.01 0.01 52 1011.2
20260510024114 72 14 0.0 0.0 0.00 0.01 0.01 52 1011.2
20260510023610 72 14 0.0 0.0 0.00 0.01 0.01 52 1011.1
20260510023108 72 14 0.0 0.0 0.00 0.01 0.01 51 1011.1
20260510022607 72 14 0.0 1.0 0.00 0.01 0.01 52 1010.9
20260510022102 72 14 0.0 0.0 0.00 0.01 0.01 52 1010.8
20260510021558 72 13 0.0 1.0 0.00 0.01 0.01 53 1010.6
20260510021056 73 23 0.0 0.0 0.00 0.01 0.01 52 1010.3
20260510020555 73 23 0.0 0.0 0.00 0.01 0.01 51 1009.9
20260510020051 73 12 0.0 0.0 0.00 0.01 0.01 51 1009.2
20260510015547 73 13 0.0 1.0 0.00 0.01 0.01 51 1009.0
20260510015044 73 13 0.0 0.0 0.00 0.01 0.01 51 1008.7
20260510014540 73 119 0.0 0.0 0.00 0.01 0.01 51 1008.9
20260510014037 73 119 0.0 0.0 0.00 0.01 0.01 51 1008.6
20260510013532 74 119 0.0 0.0 0.00 0.01 0.01 52 1008.7
20260510013028 74 119 0.0 0.0 0.00 0.01 0.01 50 1008.9
20260510012528 74 137 0.0 0.0 0.00 0.01 0.01 50 1008.6
20260510012025 75 137 0.0 0.0 0.00 0.01 0.01 49 1008.7
20260510011524 75 137 0.0 0.0 0.00 0.01 0.01 49 1008.8
20260510011020 76 137 0.0 0.0 0.00 0.01 0.01 48 1008.6
20260510010517 76 137 0.0 0.0 0.00 0.01 0.01 47 1008.4
20260510010014 76 128 0.0 0.0 0.00 0.01 0.01 46 1008.6
20260510005510 77 128 0.0 0.0 0.00 0.01 0.01 45 1008.6
20260510005008 77 175 0.0 0.0 0.00 0.01 0.01 46 1008.8
20260510004505 78 175 0.0 0.0 0.00 0.01 0.01 45 1008.8
20260510004003 78 175 0.0 0.0 0.00 0.01 0.01 45 1008.9
20260510003459 79 175 0.0 0.0 0.00 0.01 0.01 44 1009.0
20260510002954 80 175 0.0 0.0 0.00 0.01 0.01 43 1009.0
20260510002450 81 175 0.0 0.0 0.00 0.01 0.01 42 1009.0
20260510001947 82 175 0.0 0.0 0.00 0.01 0.01 41 1008.9
20260510001444 83 175 0.0 0.0 0.00 0.01 0.01 39 1008.9
20260510000942 84 14 0.0 0.0 0.00 0.01 0.01 37 1009.0
20260510000440 85 14 0.0 0.0 0.00 0.01 0.01 36 1008.9
20260509235935 86 9 0.0 0.0 0.00 0.01 0.01 36 1008.8
20260509235432 87 89 0.0 2.0 0.00 0.01 0.01 34 1009.0
20260509234928 87 226 0.0 0.0 0.00 0.01 0.01 34 1009.0
20260509234425 88 151 0.0 0.0 0.00 0.01 0.01 32 1009.0
20260509233923 88 261 0.0 1.0 0.00 0.01 0.01 33 1008.8
20260509233420 88 68 0.0 1.0 0.00 0.01 0.01 32 1008.9
20260509232916 89 223 0.0 1.0 0.00 0.01 0.01 31 1008.9
20260509232414 89 242 0.0 0.0 0.00 0.01 0.01 30 1008.9
20260509231909 89 202 0.0 1.0 0.00 0.01 0.01 31 1009.0
20260509231406 89 238 0.0 1.0 0.00 0.01 0.01 31 1008.9
20260509230905 89 48 0.0 1.0 0.00 0.01 0.01 30 1008.9
20260509230401 90 72 0.0 1.0 0.00 0.01 0.01 30 1009.1
20260509225857 90 185 0.0 1.0 0.00 0.01 0.01 29 1009.2
20260509225354 90 218 0.0 1.0 0.00 0.01 0.01 29 1009.3
20260509224849 90 210 0.0 1.0 0.00 0.01 0.01 29 1009.2
20260509224345 91 221 0.0 2.0 0.00 0.01 0.01 29 1009.3
20260509223843 90 164 1.0 1.0 0.00 0.01 0.01 27 1009.5
20260509223339 90 221 0.0 0.0 0.00 0.01 0.01 28 1009.4
20260509222837 90 230 0.0 0.0 0.00 0.01 0.01 28 1009.5
20260509222331 90 89 0.0 1.0 0.00 0.01 0.01 30 1009.5
20260509221827 91 45 0.0 3.0 0.00 0.01 0.01 29 1009.6
20260509221325 91 46 0.0 1.0 0.00 0.01 0.01 26 1009.6
20260509220825 91 141 0.0 1.0 0.00 0.01 0.01 28 1009.6
20260509220321 92 228 0.0 1.0 0.00 0.01 0.01 28 1009.4
20260509215817 92 257 0.0 2.0 0.00 0.01 0.01 27 1009.5
20260509215314 91 46 0.0 2.0 0.00 0.01 0.01 28 1009.5
20260509214811 90 241 0.0 1.0 0.00 0.01 0.01 28 1009.4
20260509214308 91 227 1.0 2.0 0.00 0.01 0.01 27 1009.7
20260509213805 92 53 3.0 3.0 0.00 0.01 0.01 25 1009.5
20260509213300 91 58 0.0 0.0 0.00 0.01 0.01 27 1009.8
20260509212758 90 26 0.0 0.0 0.00 0.01 0.01 29 1009.6
20260509212255 89 135 1.0 2.0 0.00 0.01 0.01 28 1009.7
20260509211750 91 244 2.0 3.0 0.00 0.01 0.01 25 1009.9
20260509211247 90 226 0.0 1.0 0.00 0.01 0.01 30 1009.9
20260509210743 89 52 1.0 2.0 0.00 0.01 0.01 27 1010.2
20260509210242 88 110 3.0 4.0 0.00 0.01 0.01 29 1009.9
20260509205741 89 49 0.0 2.0 0.00 0.01 0.01 29 1010.0
20260509205236 90 53 1.0 3.0 0.00 0.01 0.01 29 1010.2
20260509204732 90 26 0.0 6.0 0.00 0.01 0.01 27 1010.1
20260509204229 89 34 0.0 1.0 0.00 0.01 0.01 28 1010.2
20260509203724 89 33 2.0 2.0 0.00 0.01 0.01 27 1010.2
20260509203223 90 23 3.0 4.0 0.00 0.01 0.01 27 1010.3
20260509202718 89 60 1.0 3.0 0.00 0.01 0.01 29 1010.1
20260509202214 90 55 1.0 1.0 0.00 0.01 0.01 26 1010.4
20260509201709 91 204 1.0 4.0 0.00 0.01 0.01 28 1010.2
20260509201206 92 40 0.0 1.0 0.00 0.01 0.01 27 1010.6
20260509200702 91 6 0.0 3.0 0.00 0.01 0.01 27 1010.4
20260509200157 93 27 1.0 2.0 0.00 0.01 0.01 26 1010.4
20260509195653 93 315 0.0 1.0 0.00 0.01 0.01 25 1010.8
20260509195149 92 194 1.0 2.0 0.00 0.01 0.01 25 1010.8
20260509194649 91 161 0.0 2.0 0.00 0.01 0.01 26 1010.8
20260509194146 92 49 2.0 2.0 0.00 0.01 0.01 22 1011.0
20260509193642 91 295 0.0 1.0 0.00 0.01 0.01 25 1011.1
20260509193137 91 209 1.0 2.0 0.00 0.01 0.01 24 1011.4
20260509192634 91 275 0.0 1.0 0.00 0.01 0.01 25 1011.3
20260509192130 90 274 1.0 1.0 0.00 0.01 0.01 24 1011.4
20260509191629 91 269 2.0 2.0 0.00 0.01 0.01 23 1011.3
20260509191126 89 245 0.0 1.0 0.00 0.01 0.01 28 1011.3
20260509190623 88 74 0.0 0.0 0.00 0.01 0.01 30 1011.3
20260509190120 89 68 1.0 3.0 0.00 0.01 0.01 28 1011.3
20260509185618 89 249 0.0 2.0 0.00 0.01 0.01 26 1011.3
20260509185114 90 31 0.0 0.0 0.00 0.01 0.01 26 1011.6
20260509184612 89 34 0.0 0.0 0.00 0.01 0.01 27 1011.4
20260509184108 90 185 1.0 2.0 0.00 0.01 0.01 26 1011.4
20260509183604 89 302 0.0 1.0 0.00 0.01 0.01 25 1011.7
20260509183100 88 268 0.0 1.0 0.00 0.01 0.01 28 1011.8
20260509182556 89 55 0.0 2.0 0.00 0.01 0.01 30 1011.7
20260509182053 88 318 0.0 1.0 0.00 0.01 0.01 25 1011.7
20260509181552 89 206 1.0 1.0 0.00 0.01 0.01 28 1011.8
20260509181048 89 74 0.0 1.0 0.00 0.01 0.01 27 1011.8
20260509180544 89 27 0.0 1.0 0.00 0.01 0.01 28 1011.9
20260509180042 88 303 1.0 1.0 0.00 0.01 0.01 30 1011.8
20260509175537 88 57 0.0 1.0 0.00 0.01 0.01 31 1012.2
20260509175034 87 218 1.0 2.0 0.00 0.01 0.01 29 1012.1
20260509174531 88 48 0.0 2.0 0.00 0.01 0.01 32 1011.9
20260509174026 86 102 0.0 2.0 0.00 0.01 0.01 35 1012.3
20260509173520 86 63 2.0 2.0 0.00 0.01 0.01 34 1012.1
20260509173017 87 50 0.0 1.0 0.00 0.01 0.01 35 1012.4
20260509172514 87 18 1.0 2.0 0.00 0.01 0.01 32 1012.4
20260509172010 87 98 0.0 1.0 0.00 0.01 0.01 36 1012.3
20260509171506 86 109 0.0 0.0 0.00 0.01 0.01 34 1012.1
20260509171003 85 55 0.0 0.0 0.00 0.01 0.01 37 1012.0
20260509170458 85 107 0.0 1.0 0.00 0.01 0.01 39 1012.3
20260509165954 84 27 0.0 1.0 0.00 0.01 0.01 44 1012.7
20260509165453 83 55 1.0 2.0 0.00 0.01 0.01 45 1012.7
20260509164949 82 44 1.0 2.0 0.00 0.01 0.01 45 1012.7
20260509164445 81 69 0.0 2.0 0.00 0.01 0.01 50 1012.9
20260509163941 81 33 0.0 1.0 0.00 0.01 0.01 50 1013.1
20260509163439 80 279 0.0 0.0 0.00 0.01 0.01 55 1012.9
20260509162937 80 243 0.0 1.0 0.00 0.01 0.01 53 1013.1
20260509162437 79 10 0.0 0.0 0.00 0.01 0.01 53 1013.0
20260509161932 79 10 0.0 0.0 0.00 0.01 0.01 54 1012.9
20260509161429 79 10 0.0 0.0 0.00 0.01 0.01 53 1012.7
20260509160924 80 26 1.0 1.0 0.00 0.01 0.01 54 1012.9
20260509160420 79 55 0.0 0.0 0.00 0.01 0.01 57 1013.3
20260509155915 80 55 0.0 0.0 0.00 0.01 0.01 52 1012.8
20260509155412 81 35 0.0 1.0 0.00 0.01 0.01 50 1012.8
20260509154909 81 22 0.0 1.0 0.00 0.01 0.01 52 1012.9
20260509154405 80 263 1.0 2.0 0.00 0.01 0.01 54 1013.0
20260509153902 81 4 0.0 2.0 0.00 0.01 0.01 52 1013.0
20260509153359 81 291 0.0 1.0 0.00 0.01 0.01 56 1013.0
20260509152856 79 261 0.0 1.0 0.00 0.01 0.01 61 1012.9
20260509152352 78 225 0.0 1.0 0.00 0.01 0.01 60 1012.9
20260509151849 76 26 0.0 1.0 0.00 0.01 0.01 65 1012.8
20260509151345 77 54 2.0 4.0 0.00 0.01 0.01 61 1012.7
20260509150844 75 78 0.0 0.0 0.00 0.01 0.01 69 1012.6
20260509150341 74 183 0.0 1.0 0.00 0.01 0.01 68 1012.7
20260509145839 73 277 0.0 1.0 0.00 0.01 0.01 68 1012.8
20260509145338 73 279 0.0 0.0 0.00 0.01 0.01 71 1012.9
20260509144835 71 256 0.0 1.0 0.00 0.01 0.01 73 1012.8
20260509144332 71 249 0.0 1.0 0.00 0.01 0.01 75 1012.9
20260509143829 70 271 2.0 2.0 0.00 0.01 0.01 75 1012.7
20260509143327 69 356 0.0 0.0 0.00 0.01 0.01 80 1012.8
20260509142823 68 244 0.0 0.0 0.00 0.01 0.01 83 1012.8
20260509142319 66 21 0.0 0.0 0.00 0.01 0.01 87 1012.8
20260509141815 64 21 0.0 0.0 0.00 0.01 0.01 95 1012.7
20260509141312 62 21 0.0 0.0 0.00 0.01 0.01 97 1012.6
20260509140808 62 347 0.0 0.0 0.00 0.01 0.01 97 1012.5
20260509140306 61 347 0.0 0.0 0.00 0.01 0.01 98 1012.5
20260509135803 61 347 0.0 0.0 0.07 0.01 0.01 98 1012.6
20260509135301 60 347 0.0 0.0 0.07 0.01 0.01 98 1012.6
20260509134758 60 347 0.0 1.0 0.00 0.00 0.00 98 1012.5
20260509134255 59 347 0.0 1.0 0.00 0.00 0.00 98 1012.6
20260509133752 59 347 0.0 0.0 0.00 0.00 0.00 98 1012.6
20260509133248 58 347 0.0 0.0 0.00 0.00 0.00 98 1012.5
20260509132747 57 347 0.0 0.0 0.00 0.00 0.00 98 1012.6
20260509132246 57 347 0.0 0.0 0.00 0.00 0.00 98 1012.7
20260509131742 56 347 0.0 0.0 0.00 0.00 0.00 98 1012.5
20260509131239 56 347 0.0 0.0 0.00 0.00 0.00 98 1012.3
20260509130735 55 347 0.0 0.0 0.00 0.00 0.00 98 1012.3
20260509130230 55 347 0.0 0.0 0.00 0.00 0.00 98 1012.5
20260509125727 54 347 0.0 0.0 0.00 0.00 0.00 98 1012.3
20260509125225 53 347 0.0 0.0 0.00 0.00 0.00 98 1012.5
20260509124721 52 347 0.0 0.0 0.00 0.00 0.00 98 1012.3
20260509124217 51 347 0.0 0.0 0.00 0.00 0.00 98 1012.0
20260509123716 51 347 0.0 0.0 0.00 0.00 0.00 98 1012.2
20260509123212 51 347 0.0 0.0 0.00 0.00 0.00 98 1011.9
20260509122708 51 347 0.0 0.0 0.00 0.00 0.00 98 1011.9
20260509122205 50 347 0.0 0.0 0.00 0.00 0.00 98 1011.7
20260509121701 50 347 0.0 0.0 0.00 0.00 0.00 98 1011.8
20260509121159 49 347 0.0 0.0 0.00 0.00 0.00 97 1011.8
20260509120657 49 347 0.0 0.0 0.00 0.00 0.00 97 1011.5
20260509120155 49 347 0.0 0.0 0.00 0.00 0.00 97 1011.6
20260509115652 48 347 0.0 0.0 0.00 0.00 0.00 97 1011.5
20260509115150 48 347 0.0 0.0 0.00 0.00 0.00 97 1011.6
20260509114648 49 347 0.0 0.0 0.00 0.00 0.00 97 1011.4
20260509114147 49 347 0.0 0.0 0.00 0.00 0.00 97 1011.4
20260509113644 49 347 0.0 0.0 0.00 0.00 0.00 97 1011.5
20260509113141 49 347 0.0 0.0 0.00 0.00 0.00 97 1011.5
20260509112638 49 347 0.0 0.0 0.00 0.00 0.00 97 1011.4
20260509112135 50 347 0.0 0.0 0.00 0.00 0.00 97 1011.5
20260509111632 50 347 0.0 0.0 0.00 0.00 0.00 97 1011.3
20260509111129 50 347 0.0 0.0 0.00 0.00 0.00 97 1011.2
20260509110626 50 347 0.0 0.0 0.00 0.00 0.00 97 1011.3
20260509110123 50 347 0.0 0.0 0.00 0.00 0.00 97 1011.3
20260509105621 50 347 0.0 0.0 0.00 0.00 0.00 97 1011.3
20260509105119 50 347 0.0 0.0 0.00 0.00 0.00 97 1011.3
20260509104615 50 347 0.0 0.0 0.00 0.00 0.00 97 1011.2
20260509104112 50 347 0.0 0.0 0.00 0.00 0.00 97 1011.4
20260509103610 51 347 0.0 0.0 0.00 0.00 0.00 97 1011.4
20260509103108 51 347 0.0 0.0 0.00 0.00 0.00 97 1011.5
20260509102605 51 347 0.0 0.0 0.00 0.00 0.00 97 1011.3
20260509102102 51 347 0.0 0.0 0.00 0.00 0.00 97 1011.6
20260509101558 51 347 0.0 0.0 0.00 0.00 0.00 97 1011.3
20260509101055 51 347 0.0 0.0 0.00 0.00 0.00 97 1011.6
20260509100552 51 347 0.0 0.0 0.00 0.00 0.00 97 1011.6
20260509100049 51 347 0.0 0.0 0.00 0.00 0.00 97 1011.8
20260509095546 51 347 0.0 0.0 0.00 0.00 0.00 97 1011.6
20260509095044 52 347 0.0 0.0 0.00 0.00 0.00 97 1011.6
20260509094539 52 347 0.0 0.0 0.00 0.00 0.00 97 1011.6
20260509094037 52 347 0.0 0.0 0.00 0.00 0.00 97 1011.5
20260509093535 52 347 0.0 0.0 0.00 0.00 0.00 97 1011.6
20260509093032 52 347 0.0 0.0 0.00 0.00 0.00 96 1011.7
20260509092530 52 347 0.0 0.0 0.00 0.00 0.00 96 1011.7
20260509092029 52 347 0.0 0.0 0.00 0.00 0.00 96 1011.8
20260509091525 52 347 0.0 0.0 0.00 0.00 0.00 96 1011.7
20260509091022 53 347 0.0 0.0 0.00 0.00 0.00 96 1011.9
20260509090519 53 347 0.0 0.0 0.00 0.00 0.00 96 1011.8
20260509090017 53 347 0.0 0.0 0.00 0.00 0.00 96 1011.7
20260509085514 53 347 0.0 0.0 0.00 0.00 0.00 96 1011.7
20260509085010 53 347 0.0 0.0 0.00 0.00 0.00 96 1011.7
20260509084507 53 347 0.0 0.0 0.00 0.00 0.00 96 1011.8
20260509084004 54 347 0.0 0.0 0.00 0.00 0.00 96 1011.7
20260509083501 54 347 0.0 0.0 0.00 0.00 0.00 96 1011.6
20260509082957 54 347 0.0 0.0 0.00 0.00 0.00 96 1011.5
20260509082455 54 347 0.0 0.0 0.00 0.00 0.00 96 1011.6
20260509081952 54 347 0.0 0.0 0.00 0.00 0.00 96 1011.6
20260509081450 54 347 0.0 0.0 0.00 0.00 0.00 96 1011.8
20260509080946 54 347 0.0 0.0 0.00 0.00 0.00 96 1011.9
20260509080445 54 347 0.0 0.0 0.00 0.00 0.00 96 1011.9
20260509075942 54 347 0.0 0.0 0.00 0.00 0.00 96 1012.1
20260509075439 54 347 0.0 0.0 0.00 0.00 0.00 96 1012.2
20260509074937 54 347 0.0 0.0 0.00 0.00 0.00 96 1011.9
20260509074435 54 347 0.0 0.0 0.00 0.00 0.00 96 1012.2
20260509073930 54 347 0.0 0.0 0.00 0.00 0.00 95 1012.1
20260509073427 54 347 0.0 0.0 0.00 0.00 0.00 95 1012.2
20260509072924 55 347 0.0 0.0 0.00 0.00 0.00 95 1012.0
20260509072421 55 347 0.0 0.0 0.00 0.00 0.00 95 1012.3
20260509071917 55 347 0.0 0.0 0.00 0.00 0.00 95 1012.2
20260509071414 55 347 0.0 0.0 0.00 0.00 0.00 95 1012.0
20260509070912 55 347 0.0 0.0 0.00 0.00 0.00 95 1012.0
20260509070408 55 347 0.0 0.0 0.00 0.00 0.00 95 1011.8
20260509065904 56 347 0.0 0.0 0.00 0.00 0.00 95 1012.1
20260509065400 56 347 0.0 0.0 0.00 0.00 0.00 95 1012.2
20260509064856 56 347 0.0 0.0 0.00 0.00 0.00 95 1012.1
20260509064354 56 347 0.0 0.0 0.00 0.00 0.00 95 1012.2
20260509063852 56 347 0.0 0.0 0.00 0.00 0.00 94 1012.2
20260509063348 56 347 0.0 0.0 0.00 0.00 0.00 94 1012.4
20260509062845 56 347 0.0 0.0 0.00 0.00 0.00 94 1012.4
20260509062342 56 347 0.0 0.0 0.00 0.00 0.00 94 1012.3
20260509061839 57 347 0.0 0.0 0.00 0.00 0.00 94 1012.3
20260509061337 57 347 0.0 0.0 0.00 0.00 0.00 94 1012.3
20260509060834 57 347 0.0 0.0 0.00 0.00 0.00 93 1012.3
20260509060331 57 347 0.0 0.0 0.00 0.00 0.00 93 1012.6
20260509055826 58 347 0.0 0.0 0.00 0.00 0.00 93 1012.3
20260509055321 58 347 0.0 0.0 0.00 0.00 0.00 93 1012.3
20260509054819 58 347 0.0 0.0 0.00 0.00 0.00 93 1012.2
20260509054315 58 347 0.0 0.0 0.00 0.00 0.00 92 1012.2
20260509053814 58 347 0.0 0.0 0.00 0.00 0.00 92 1012.1
20260509053311 58 347 0.0 0.0 0.00 0.00 0.00 92 1012.2
20260509052809 59 347 0.0 0.0 0.00 0.00 0.00 91 1012.4
20260509052307 59 347 0.0 0.0 0.00 0.00 0.00 91 1012.1
20260509051804 59 347 0.0 0.0 0.00 0.00 0.00 91 1012.3
20260509051302 60 347 0.0 0.0 0.00 0.00 0.00 91 1012.2
20260509050758 60 347 0.0 0.0 0.00 0.00 0.00 91 1012.1
20260509050254 60 347 0.0 0.0 0.00 0.00 0.00 91 1012.1
20260509045752 60 347 0.0 0.0 0.00 0.00 0.00 91 1012.0
20260509045248 60 347 0.0 0.0 0.00 0.00 0.00 90 1012.1
20260509044746 60 347 0.0 0.0 0.00 0.00 0.00 90 1012.2
20260509044244 61 347 0.0 0.0 0.00 0.00 0.00 90 1012.3
20260509043740 61 347 0.0 0.0 0.00 0.00 0.00 90 1012.3
20260509043236 61 347 0.0 0.0 0.00 0.00 0.00 90 1012.5
20260509042732 61 345 0.0 1.0 0.00 0.00 0.00 90 1012.6
20260509042228 61 345 0.0 0.0 0.00 0.00 0.00 90 1012.5
20260509041725 61 345 0.0 0.0 0.00 0.00 0.00 89 1012.5
20260509041222 61 345 0.0 0.0 0.00 0.00 0.00 88 1012.6
20260509040721 62 345 0.0 0.0 0.00 0.00 0.00 88 1012.4
20260509040217 62 345 0.0 0.0 0.00 0.00 0.00 87 1012.3
20260509035714 62 345 0.0 0.0 0.00 0.00 0.00 86 1012.2
20260509035211 63 345 0.0 0.0 0.00 0.00 0.00 86 1012.3
20260509034708 63 345 0.0 0.0 0.00 0.00 0.00 85 1012.3
20260509034206 64 345 0.0 0.0 0.00 0.00 0.00 85 1012.2